User: anonymous   Login
Location: Unspecified
(0.0000°N, 0.0000°E)
Time: 09:39:29
(UTC+00:00)
Language:

NNS O-29 - Orbit

View from above orbital plane
View from above orbital plane
View from above satellite
View from above satellite

Ground track
Ground track

The orbit data is extracted from the following two-line orbital elements,

1 18362U 87080B   18267.32403984 +.00000045 +00000-0 +61928-4 0  9999
2 18362 090.3286 350.9109 0104980 228.9717 199.3696 13.44056454520922
Epoch (UTC): 24 September 2018 07:46:37
Eccentricity: 0.0104980
inclination: 90.3286°
perigee height: 1016 km
apogee height: 1172 km
right ascension of ascending node: 350.9109°
argument of perigee: 228.9717°
revolutions per day: 13.44056454
mean anomaly at epoch: 199.3696°
orbit number at epoch: 52092

The dashed part of the orbit path shows where the satellite is in the earth's shadow,  

DLR